| time (UTC) | temp F | wind direction | speed knots | gust knots | rain 1hr in | rain 24hr in | rain mn in | humidity % | barometer mb |
| 20260510191540 | 65 | 5 | 0.0 | 7.0 | 0.00 | 0.02 | 0.00 | 51 | 1013.4 |
| 20260510190041 | 66 | 20 | 0.9 | 5.2 | 0.00 | 0.02 | 0.00 | 50 | 1013.4 |
| 20260510184543 | 65 | 279 | 0.9 | 3.5 | 0.00 | 0.06 | 0.00 | 49 | 1013.4 |
| 20260510183039 | 64 | 213 | 0.9 | 5.2 | 0.00 | 0.06 | 0.00 | 55 | 1013.5 |
| 20260510181600 | 63 | 269 | 0.9 | 6.1 | 0.00 | 0.06 | 0.00 | 54 | 1013.6 |
| 20260510174539 | 64 | 213 | 0.9 | 7.0 | 0.00 | 0.08 | 0.00 | 63 | 1013.7 |
| 20260510173037 | 63 | 0 | 1.7 | 4.3 | 0.00 | 0.08 | 0.00 | 63 | 1013.6 |
| 20260510171546 | 63 | 342 | 1.7 | 3.5 | 0.00 | 0.08 | 0.00 | 62 | 1013.4 |
| 20260510170038 | 63 | 319 | 1.7 | 5.2 | 0.00 | 0.08 | 0.00 | 65 | 1013.4 |
| 20260510164536 | 62 | 276 | 1.7 | 5.2 | 0.00 | 0.11 | 0.00 | 68 | 1013.6 |
| 20260510163045 | 62 | 58 | 0.9 | 6.1 | 0.00 | 0.11 | 0.00 | 71 | 1013.7 |
| 20260510161539 | 60 | 265 | 0.9 | 2.6 | 0.00 | 0.11 | 0.00 | 74 | 1013.5 |
| 20260510160039 | 58 | 229 | 0.9 | 4.3 | 0.00 | 0.11 | 0.00 | 77 | 1013.7 |
| 20260510154537 | 57 | 291 | 0.9 | 4.3 | 0.00 | 0.16 | 0.00 | 76 | 1013.6 |
| 20260510153037 | 59 | 270 | 1.7 | 11.3 | 0.00 | 0.16 | 0.00 | 75 | 1013.6 |
| 20260510151541 | 61 | 249 | 0.0 | 1.7 | 0.00 | 0.16 | 0.00 | 78 | 1013.2 |
| 20260510150104 | 61 | 188 | 0.0 | 1.7 | 0.00 | 0.16 | 0.00 | 78 | 1012.8 |
| 20260510144538 | 60 | 0 | 0.0 | 2.6 | 0.00 | 0.25 | 0.00 | 80 | 1012.6 |
| 20260510143039 | 60 | 178 | 1.7 | 4.3 | 0.00 | 0.25 | 0.00 | 79 | 1012.4 |
| 20260510141537 | 59 | 0 | 0.9 | 2.6 | 0.00 | 0.25 | 0.00 | 80 | 1012.2 |
| 20260510140038 | 59 | 181 | 1.7 | 4.3 | 0.00 | 0.25 | 0.00 | 81 | 1012.4 |
| 20260510134545 | 59 | 174 | 3.5 | 7.0 | 0.00 | 0.31 | 0.00 | 80 | 1012.3 |
| 20260510133045 | 58 | 115 | 0.9 | 7.0 | 0.00 | 0.31 | 0.00 | 82 | 1012.0 |
| 20260510131541 | 57 | 202 | 1.7 | 6.1 | 0.00 | 0.31 | 0.00 | 85 | 1011.9 |
| 20260510130038 | 56 | 182 | 0.9 | 5.2 | 0.00 | 0.31 | 0.00 | 86 | 1012.2 |
| 20260510124539 | 56 | 182 | 2.6 | 6.1 | 0.00 | 0.38 | 0.00 | 85 | 1012.0 |
| 20260510123046 | 56 | 0 | 1.7 | 6.1 | 0.00 | 0.38 | 0.00 | 86 | 1011.9 |
| 20260510121543 | 55 | 182 | 2.6 | 6.1 | 0.00 | 0.38 | 0.00 | 88 | 1011.8 |
| 20260510120044 | 54 | 173 | 1.7 | 5.2 | 0.00 | 0.38 | 0.00 | 90 | 1011.8 |
| 20260510114547 | 53 | 189 | 2.6 | 7.0 | 0.00 | 0.38 | 0.00 | 90 | 1011.6 |
| 20260510113038 | 53 | 176 | 1.7 | 7.8 | 0.00 | 0.38 | 0.00 | 90 | 1011.5 |
| 20260510111539 | 53 | 167 | 2.6 | 5.2 | 0.00 | 0.38 | 0.00 | 91 | 1011.6 |
| 20260510110042 | 53 | 196 | 0.9 | 6.1 | 0.00 | 0.38 | 0.00 | 91 | 1011.7 |
| 20260510104547 | 52 | 173 | 1.7 | 6.1 | 0.00 | 0.38 | 0.00 | 91 | 1011.5 |
| 20260510103044 | 52 | 169 | 0.9 | 9.6 | 0.00 | 0.38 | 0.00 | 91 | 1011.2 |
| 20260510101538 | 52 | 0 | 2.6 | 7.8 | 0.00 | 0.38 | 0.00 | 91 | 1010.9 |
| 20260510100044 | 52 | 188 | 0.0 | 6.1 | 0.00 | 0.38 | 0.00 | 92 | 1010.6 |
| 20260510094546 | 52 | 176 | 1.7 | 7.0 | 0.00 | 0.38 | 0.00 | 92 | 1010.6 |
| 20260510093037 | 51 | 168 | 1.7 | 5.2 | 0.00 | 0.38 | 0.00 | 92 | 1010.4 |
| 20260510091545 | 51 | 167 | 0.9 | 3.5 | 0.00 | 0.38 | 0.00 | 92 | 1010.2 |
| 20260510090045 | 51 | 0 | 0.0 | 1.7 | 0.00 | 0.38 | 0.00 | 92 | 1009.9 |
| 20260510084539 | 51 | 0 | 0.9 | 4.3 | 0.00 | 0.38 | 0.00 | 91 | 1010.2 |
| 20260510083051 | 52 | 175 | 2.6 | 5.2 | 0.00 | 0.38 | 0.00 | 91 | 1010.4 |
| 20260510081541 | 52 | 178 | 0.9 | 4.3 | 0.00 | 0.38 | 0.00 | 91 | 1010.2 |
| 20260510080038 | 52 | 148 | 0.9 | 2.6 | 0.00 | 0.38 | 0.00 | 91 | 1010.1 |
| 20260510074547 | 52 | 133 | 0.9 | 5.2 | 0.00 | 0.38 | 0.00 | 91 | 1010.3 |
| 20260510073050 | 52 | 181 | 0.9 | 3.5 | 0.00 | 0.38 | 0.00 | 90 | 1010.7 |
| 20260510071540 | 52 | 153 | 0.0 | 3.5 | 0.00 | 0.38 | 0.00 | 90 | 1010.8 |
| 20260510070040 | 52 | 0 | 0.9 | 4.3 | 0.00 | 0.38 | 0.00 | 90 | 1011.1 |
| 20260510064540 | 52 | 192 | 3.5 | 7.0 | 0.00 | 0.38 | 0.00 | 91 | 1011.1 |
| 20260510063038 | 52 | 0 | 0.0 | 4.3 | 0.00 | 0.38 | 0.00 | 90 | 1011.0 |
| 20260510061537 | 52 | 184 | 0.9 | 3.5 | 0.00 | 0.38 | 0.00 | 90 | 1010.7 |
| 20260510060044 | 52 | 190 | 0.0 | 3.5 | 0.00 | 0.38 | 0.00 | 90 | 1010.2 |
| 20260510054541 | 52 | 182 | 2.6 | 7.0 | 0.00 | 0.38 | 0.00 | 91 | 1010.2 |
| 20260510053038 | 52 | 150 | 0.9 | 7.0 | 0.00 | 0.38 | 0.00 | 91 | 1010.2 |
| 20260510051539 | 51 | 180 | 0.0 | 4.3 | 0.00 | 0.38 | 0.00 | 91 | 1010.4 |
| 20260510050039 | 51 | 201 | 0.0 | 1.7 | 0.00 | 0.38 | 0.00 | 91 | 1010.4 |
| 20260510044536 | 51 | 201 | 0.9 | 2.6 | 0.00 | 0.38 | 0.00 | 90 | 1010.4 |
| 20260510043043 | 51 | 0 | 0.0 | 0.9 | 0.00 | 0.38 | 0.00 | 90 | 1010.5 |
| 20260510041543 | 52 | 0 | 0.0 | 0.9 | 0.00 | 0.38 | 0.00 | 90 | 1010.3 |
| 20260510040039 | 52 | 0 | 0.0 | 2.6 | 0.00 | 0.38 | 0.00 | 90 | 1010.5 |
| 20260510034538 | 52 | 0 | 0.0 | 2.6 | 0.00 | 0.38 | 0.38 | 90 | 1010.4 |
| 20260510033038 | 52 | 0 | 0.0 | 2.6 | 0.00 | 0.38 | 0.38 | 89 | 1010.2 |
| 20260510031537 | 52 | 109 | 0.0 | 1.7 | 0.00 | 0.38 | 0.38 | 89 | 1010.0 |
| 20260510030052 | 52 | 0 | 0.0 | 1.7 | 0.00 | 0.38 | 0.38 | 89 | 1010.2 |
| 20260510024542 | 52 | 96 | 0.0 | 1.7 | 0.00 | 0.38 | 0.38 | 89 | 1010.5 |
| 20260510023037 | 53 | 0 | 0.0 | 0.9 | 0.00 | 0.38 | 0.38 | 89 | 1010.5 |
| 20260510021537 | 52 | 0 | 0.0 | 2.6 | 0.00 | 0.38 | 0.38 | 89 | 1010.4 |
| 20260510020037 | 52 | 86 | 0.0 | 1.7 | 0.00 | 0.38 | 0.38 | 90 | 1010.5 |
| 20260510014541 | 52 | 80 | 0.0 | 1.7 | 0.00 | 0.38 | 0.38 | 90 | 1010.3 |
| 20260510013049 | 52 | 0 | 0.0 | 1.7 | 0.00 | 0.38 | 0.38 | 90 | 1010.4 |
| 20260510011545 | 52 | 79 | 0.0 | 3.5 | 0.00 | 0.38 | 0.38 | 91 | 1010.4 |
| 20260510010038 | 52 | 0 | 0.0 | 0.9 | 0.00 | 0.38 | 0.38 | 91 | 1010.4 |
| 20260510004537 | 52 | 0 | 0.0 | 0.9 | 0.00 | 0.38 | 0.38 | 91 | 1010.2 |
| 20260510003041 | 52 | 0 | 0.0 | 0.0 | 0.00 | 0.38 | 0.38 | 90 | 1010.2 |
| 20260510001543 | 53 | 0 | 0.0 | 0.9 | 0.00 | 0.38 | 0.38 | 89 | 1009.7 |
| 20260510000045 | 53 | 0 | 0.0 | 0.9 | 0.00 | 0.38 | 0.38 | 89 | 1009.7 |
| 20260509234542 | 54 | 167 | 0.0 | 3.5 | 0.00 | 0.38 | 0.38 | 88 | 1009.5 |
| 20260509233038 | 54 | 0 | 0.0 | 3.5 | 0.00 | 0.38 | 0.38 | 88 | 1009.1 |
| 20260509231543 | 54 | 0 | 0.0 | 5.2 | 0.00 | 0.38 | 0.38 | 88 | 1008.9 |
| 20260509230037 | 54 | 175 | 1.7 | 5.2 | 0.00 | 0.38 | 0.38 | 89 | 1008.9 |
| 20260509224544 | 55 | 0 | 0.9 | 4.3 | 0.00 | 0.38 | 0.38 | 89 | 1009.2 |
| 20260509223042 | 55 | 174 | 0.0 | 5.2 | 0.00 | 0.38 | 0.38 | 90 | 1009.3 |
| 20260509221542 | 54 | 183 | 1.7 | 4.3 | 0.00 | 0.38 | 0.38 | 90 | 1009.1 |
| 20260509220040 | 54 | 188 | 1.7 | 4.3 | 0.00 | 0.38 | 0.38 | 91 | 1009.1 |
| 20260509214537 | 54 | 161 | 2.6 | 5.2 | 0.00 | 0.38 | 0.38 | 92 | 1009.4 |
| 20260509213038 | 54 | 142 | 1.7 | 7.8 | 0.00 | 0.38 | 0.38 | 92 | 1009.5 |
| 20260509211537 | 53 | 132 | 0.9 | 7.0 | 0.00 | 0.38 | 0.38 | 93 | 1009.5 |
| 20260509210058 | 53 | 0 | 2.6 | 7.8 | 0.00 | 0.38 | 0.38 | 94 | 1009.5 |
| 20260509204543 | 53 | 182 | 1.7 | 8.7 | 0.00 | 0.38 | 0.38 | 94 | 1009.8 |
| 20260509203041 | 53 | 0 | 0.9 | 4.3 | 0.00 | 0.38 | 0.38 | 95 | 1009.9 |
| 20260509201538 | 52 | 184 | 0.0 | 4.3 | 0.00 | 0.38 | 0.38 | 95 | 1010.0 |
| 20260509200037 | 52 | 85 | 0.0 | 6.1 | 0.02 | 0.38 | 0.38 | 95 | 1010.3 |
| 20260509194537 | 51 | 168 | 0.9 | 6.1 | 0.03 | 0.38 | 0.38 | 94 | 1010.6 |
| 20260509193045 | 51 | 0 | 1.7 | 5.2 | 0.04 | 0.38 | 0.38 | 94 | 1010.7 |